| time (UTC) | temp F | wind direction | speed MPH | gust MPH | rain 1hr in | rain 24hr in | rain mn in | humidity % | barometer mb |
| 20260508095002 | 47 | 283 | 0.0 | 0.0 | 0.00 | 0.00 | 0.00 | 95 | 1012.7 |
| 20260508094502 | 47 | 303 | 1.0 | 2.0 | 0.00 | 0.00 | 0.00 | 95 | 1012.9 |
| 20260508094001 | 47 | 294 | 0.0 | 0.0 | 0.00 | 0.00 | 0.00 | 95 | 1013.0 |
| 20260508093002 | 46 | 293 | 0.0 | 0.0 | 0.00 | 0.00 | 0.00 | 94 | 1013.1 |
| 20260508092002 | 47 | 293 | 0.0 | 0.0 | 0.00 | 0.00 | 0.00 | 94 | 1012.8 |
| 20260508091502 | 47 | 293 | 0.0 | 0.0 | 0.00 | 0.00 | 0.00 | 94 | 1013.0 |
| 20260508091002 | 47 | 284 | 0.0 | 2.0 | 0.00 | 0.00 | 0.00 | 94 | 1013.0 |
| 20260508090502 | 47 | 286 | 0.0 | 0.0 | 0.00 | 0.00 | 0.00 | 93 | 1013.2 |
| 20260508090002 | 47 | 284 | 0.0 | 2.0 | 0.00 | 0.00 | 0.00 | 93 | 1013.0 |
| 20260508085501 | 47 | 288 | 0.0 | 0.0 | 0.00 | 0.00 | 0.00 | 93 | 1013.0 |
| 20260508085002 | 47 | 288 | 0.0 | 0.0 | 0.00 | 0.00 | 0.00 | 93 | 1013.4 |
| 20260508084502 | 47 | 287 | 0.0 | 0.0 | 0.00 | 0.00 | 0.00 | 92 | 1013.3 |
| 20260508084002 | 47 | 289 | 0.0 | 0.0 | 0.00 | 0.00 | 0.00 | 92 | 1013.3 |
| 20260508083502 | 48 | 285 | 0.0 | 0.0 | 0.00 | 0.00 | 0.00 | 91 | 1013.0 |
| 20260508083002 | 48 | 286 | 0.0 | 2.0 | 0.00 | 0.00 | 0.00 | 91 | 1013.1 |
| 20260508082501 | 48 | 287 | 0.0 | 0.0 | 0.00 | 0.00 | 0.00 | 90 | 1013.4 |
| 20260508082002 | 48 | 264 | 2.0 | 3.0 | 0.00 | 0.00 | 0.00 | 90 | 1013.4 |
| 20260508081502 | 49 | 269 | 1.0 | 4.0 | 0.00 | 0.00 | 0.00 | 89 | 1013.2 |
| 20260508081001 | 49 | 265 | 1.0 | 2.0 | 0.00 | 0.00 | 0.00 | 89 | 1013.3 |
| 20260508080502 | 49 | 265 | 2.0 | 4.0 | 0.00 | 0.00 | 0.00 | 90 | 1013.2 |
| 20260508080002 | 49 | 286 | 0.0 | 4.0 | 0.00 | 0.00 | 0.00 | 90 | 1013.3 |
| 20260508075502 | 49 | 272 | 2.0 | 3.0 | 0.00 | 0.00 | 0.00 | 90 | 1013.3 |
| 20260508075002 | 49 | 260 | 2.0 | 3.0 | 0.00 | 0.00 | 0.00 | 90 | 1013.2 |
| 20260508074502 | 48 | 285 | 2.0 | 4.0 | 0.00 | 0.00 | 0.00 | 91 | 1013.4 |
| 20260508074001 | 48 | 277 | 2.0 | 3.0 | 0.00 | 0.00 | 0.00 | 93 | 1013.4 |
| 20260508073002 | 47 | 283 | 0.0 | 2.0 | 0.00 | 0.00 | 0.00 | 95 | 1013.6 |
| 20260508072002 | 46 | 287 | 0.0 | 0.0 | 0.00 | 0.00 | 0.00 | 97 | 1013.7 |
| 20260508071501 | 46 | 289 | 0.0 | 0.0 | 0.00 | 0.00 | 0.00 | 97 | 1013.7 |
| 20260508071002 | 46 | 289 | 0.0 | 0.0 | 0.00 | 0.00 | 0.00 | 97 | 1013.5 |
| 20260508070501 | 45 | 290 | 0.0 | 0.0 | 0.00 | 0.00 | 0.00 | 97 | 1013.6 |
| 20260508070002 | 44 | 289 | 0.0 | 0.0 | 0.00 | 0.00 | 0.00 | 96 | 1013.7 |
| 20260508065502 | 44 | 289 | 0.0 | 0.0 | 0.00 | 0.00 | 0.00 | 96 | 1013.7 |
| 20260508065002 | 45 | 289 | 0.0 | 0.0 | 0.00 | 0.00 | 0.00 | 95 | 1013.7 |
| 20260508064002 | 46 | 285 | 0.0 | 0.0 | 0.00 | 0.00 | 0.00 | 94 | 1013.5 |
| 20260508063502 | 46 | 284 | 0.0 | 2.0 | 0.00 | 0.00 | 0.00 | 93 | 1013.5 |
| 20260508063002 | 46 | 285 | 0.0 | 0.0 | 0.00 | 0.00 | 0.00 | 93 | 1013.7 |
| 20260508062502 | 46 | 272 | 2.0 | 2.0 | 0.00 | 0.00 | 0.00 | 93 | 1013.4 |
| 20260508062002 | 46 | 280 | 0.0 | 2.0 | 0.00 | 0.00 | 0.00 | 93 | 1013.7 |
| 20260508061501 | 46 | 280 | 1.0 | 2.0 | 0.00 | 0.00 | 0.00 | 93 | 1013.7 |
| 20260508061002 | 46 | 271 | 2.0 | 3.0 | 0.00 | 0.00 | 0.00 | 93 | 1013.7 |
| 20260508060502 | 46 | 290 | 0.0 | 0.0 | 0.00 | 0.00 | 0.00 | 93 | 1014.0 |
| 20260508060002 | 46 | 275 | 1.0 | 2.0 | 0.00 | 0.00 | 0.00 | 92 | 1013.9 |
| 20260508055502 | 46 | 287 | 0.0 | 0.0 | 0.00 | 0.00 | 0.00 | 92 | 1013.7 |
| 20260508055002 | 47 | 284 | 0.0 | 2.0 | 0.00 | 0.00 | 0.00 | 91 | 1013.6 |
| 20260508054502 | 47 | 271 | 2.0 | 2.0 | 0.00 | 0.00 | 0.00 | 91 | 1013.6 |
| 20260508054002 | 46 | 277 | 1.0 | 3.0 | 0.00 | 0.00 | 0.00 | 92 | 1013.5 |
| 20260508053502 | 46 | 271 | 2.0 | 2.0 | 0.00 | 0.00 | 0.00 | 93 | 1013.5 |
| 20260508053002 | 46 | 271 | 1.0 | 2.0 | 0.00 | 0.00 | 0.00 | 93 | 1013.6 |
| 20260508052502 | 46 | 287 | 0.0 | 0.0 | 0.00 | 0.00 | 0.00 | 91 | 1013.3 |
| 20260508052002 | 46 | 281 | 0.0 | 3.0 | 0.00 | 0.00 | 0.00 | 91 | 1013.6 |
| 20260508051001 | 46 | 299 | 0.0 | 0.0 | 0.00 | 0.00 | 0.00 | 90 | 1013.6 |
| 20260508050502 | 47 | 285 | 0.0 | 0.0 | 0.00 | 0.00 | 0.00 | 90 | 1013.2 |
| 20260508050003 | 47 | 299 | 0.0 | 0.0 | 0.00 | 0.00 | 0.00 | 89 | 1013.2 |
| 20260508045502 | 47 | 307 | 2.0 | 3.0 | 0.00 | 0.00 | 0.00 | 89 | 1013.4 |
| 20260508045002 | 48 | 290 | 0.0 | 0.0 | 0.00 | 0.00 | 0.00 | 88 | 1013.1 |
| 20260508044501 | 48 | 283 | 0.0 | 2.0 | 0.00 | 0.00 | 0.00 | 88 | 1013.2 |
| 20260508044002 | 48 | 283 | 0.0 | 3.0 | 0.00 | 0.00 | 0.00 | 87 | 1013.3 |
| 20260508043503 | 48 | 257 | 1.0 | 2.0 | 0.00 | 0.00 | 0.00 | 87 | 1013.2 |
| 20260508043002 | 49 | 256 | 2.0 | 3.0 | 0.00 | 0.00 | 0.00 | 86 | 1013.2 |
| 20260508042502 | 49 | 275 | 2.0 | 3.0 | 0.00 | 0.00 | 0.00 | 85 | 1012.9 |
| 20260508042002 | 49 | 188 | 2.0 | 4.0 | 0.00 | 0.00 | 0.00 | 85 | 1012.9 |
| 20260508041501 | 49 | 284 | 0.0 | 3.0 | 0.00 | 0.00 | 0.00 | 85 | 1013.0 |
| 20260508041002 | 49 | 276 | 1.0 | 2.0 | 0.00 | 0.00 | 0.00 | 84 | 1012.9 |
| 20260508040502 | 49 | 265 | 2.0 | 3.0 | 0.00 | 0.00 | 0.00 | 84 | 1013.1 |
| 20260508040003 | 49 | 230 | 3.0 | 5.0 | 0.00 | 0.00 | 0.00 | 83 | 1012.9 |
| 20260508035502 | 50 | 266 | 2.0 | 3.0 | 0.00 | 0.00 | 0.00 | 83 | 1012.9 |
| 20260508035002 | 49 | 267 | 1.0 | 3.0 | 0.00 | 0.00 | 0.00 | 83 | 1013.0 |
| 20260508034503 | 49 | 283 | 1.0 | 2.0 | 0.00 | 0.00 | 0.00 | 83 | 1013.1 |
| 20260508034001 | 50 | 275 | 1.0 | 4.0 | 0.00 | 0.00 | 0.00 | 83 | 1012.9 |
| 20260508033502 | 50 | 278 | 1.0 | 3.0 | 0.00 | 0.00 | 0.00 | 82 | 1012.8 |
| 20260508033002 | 50 | 265 | 2.0 | 3.0 | 0.00 | 0.00 | 0.00 | 82 | 1012.8 |
| 20260508032502 | 50 | 266 | 2.0 | 3.0 | 0.00 | 0.00 | 0.00 | 82 | 1012.6 |
| 20260508032002 | 50 | 274 | 1.0 | 3.0 | 0.00 | 0.00 | 0.00 | 81 | 1013.0 |
| 20260508031502 | 50 | 244 | 2.0 | 2.0 | 0.00 | 0.00 | 0.00 | 80 | 1013.0 |
| 20260508031002 | 50 | 262 | 2.0 | 5.0 | 0.00 | 0.00 | 0.00 | 80 | 1012.7 |
| 20260508030502 | 50 | 282 | 1.0 | 2.0 | 0.00 | 0.00 | 0.00 | 79 | 1012.9 |
| 20260508030002 | 51 | 275 | 1.0 | 2.0 | 0.00 | 0.00 | 0.00 | 78 | 1012.7 |
| 20260508025502 | 51 | 280 | 1.0 | 3.0 | 0.00 | 0.00 | 0.00 | 77 | 1012.7 |
| 20260508025002 | 51 | 276 | 1.0 | 3.0 | 0.00 | 0.00 | 0.00 | 77 | 1012.8 |
| 20260508024501 | 51 | 253 | 2.0 | 3.0 | 0.00 | 0.00 | 0.00 | 77 | 1012.9 |
| 20260508024002 | 51 | 278 | 1.0 | 2.0 | 0.00 | 0.00 | 0.00 | 77 | 1012.8 |
| 20260508023502 | 50 | 278 | 1.0 | 3.0 | 0.00 | 0.00 | 0.00 | 76 | 1012.9 |
| 20260508023002 | 50 | 273 | 2.0 | 2.0 | 0.00 | 0.00 | 0.00 | 77 | 1012.8 |
| 20260508022503 | 50 | 277 | 1.0 | 2.0 | 0.00 | 0.00 | 0.00 | 77 | 1012.7 |
| 20260508022003 | 50 | 276 | 1.0 | 3.0 | 0.00 | 0.00 | 0.00 | 77 | 1012.7 |
| 20260508021502 | 50 | 245 | 3.0 | 3.0 | 0.00 | 0.00 | 0.00 | 78 | 1012.6 |
| 20260508021002 | 49 | 277 | 1.0 | 2.0 | 0.00 | 0.00 | 0.00 | 80 | 1012.5 |
| 20260508020502 | 49 | 275 | 1.0 | 2.0 | 0.00 | 0.00 | 0.00 | 81 | 1012.7 |
| 20260508020002 | 49 | 285 | 0.0 | 0.0 | 0.00 | 0.00 | 0.00 | 81 | 1012.5 |
| 20260508015502 | 49 | 244 | 2.0 | 3.0 | 0.00 | 0.00 | 0.00 | 81 | 1012.4 |
| 20260508015002 | 49 | 271 | 1.0 | 3.0 | 0.00 | 0.00 | 0.00 | 82 | 1012.5 |
| 20260508014502 | 48 | 260 | 2.0 | 2.0 | 0.00 | 0.00 | 0.00 | 84 | 1012.3 |
| 20260508014002 | 48 | 277 | 0.0 | 2.0 | 0.00 | 0.00 | 0.00 | 83 | 1012.2 |
| 20260508013502 | 48 | 278 | 0.0 | 0.0 | 0.00 | 0.00 | 0.00 | 83 | 1012.0 |
| 20260508013002 | 49 | 277 | 0.0 | 0.0 | 0.00 | 0.00 | 0.00 | 82 | 1011.9 |
| 20260508012502 | 49 | 277 | 1.0 | 2.0 | 0.00 | 0.00 | 0.00 | 82 | 1011.9 |
| 20260508012002 | 49 | 272 | 2.0 | 2.0 | 0.00 | 0.00 | 0.00 | 82 | 1012.0 |
| 20260508011502 | 50 | 274 | 1.0 | 2.0 | 0.00 | 0.00 | 0.00 | 82 | 1012.1 |
| 20260508011002 | 50 | 287 | 0.0 | 0.0 | 0.00 | 0.00 | 0.00 | 80 | 1011.9 |
| 20260508010502 | 50 | 281 | 0.0 | 0.0 | 0.00 | 0.00 | 0.00 | 79 | 1012.1 |
| 20260508010003 | 51 | 287 | 0.0 | 0.0 | 0.00 | 0.00 | 0.00 | 78 | 1011.9 |
| 20260508005502 | 52 | 286 | 0.0 | 0.0 | 0.00 | 0.00 | 0.00 | 76 | 1011.9 |
| 20260508005002 | 52 | 297 | 2.0 | 2.0 | 0.00 | 0.00 | 0.00 | 75 | 1012.0 |
| 20260508004502 | 53 | 298 | 1.0 | 2.0 | 0.00 | 0.00 | 0.00 | 73 | 1011.9 |
| 20260508004002 | 54 | 299 | 0.0 | 0.0 | 0.00 | 0.00 | 0.00 | 71 | 1012.0 |
| 20260508003502 | 55 | 299 | 0.0 | 0.0 | 0.00 | 0.00 | 0.00 | 69 | 1012.0 |
| 20260508003002 | 56 | 299 | 0.0 | 0.0 | 0.00 | 0.00 | 0.00 | 66 | 1011.8 |
| 20260508002502 | 57 | 299 | 0.0 | 0.0 | 0.00 | 0.00 | 0.00 | 63 | 1012.0 |
| 20260508002001 | 58 | 299 | 0.0 | 0.0 | 0.00 | 0.00 | 0.00 | 62 | 1011.9 |
| 20260508001503 | 58 | 299 | 0.0 | 0.0 | 0.00 | 0.00 | 0.00 | 63 | 1011.8 |
| 20260508001002 | 57 | 298 | 0.0 | 2.0 | 0.00 | 0.00 | 0.00 | 62 | 1011.7 |
| 20260508000502 | 58 | 299 | 1.0 | 2.0 | 0.00 | 0.00 | 0.00 | 62 | 1011.7 |
| 20260508000002 | 58 | 296 | 0.0 | 0.0 | 0.00 | 0.00 | 0.00 | 61 | 1011.8 |
| 20260507235502 | 57 | 298 | 0.0 | 2.0 | 0.00 | 0.00 | 0.00 | 64 | 1011.7 |
| 20260507235002 | 56 | 356 | 1.0 | 3.0 | 0.00 | 0.00 | 0.00 | 67 | 1011.9 |
| 20260507234501 | 55 | 299 | 2.0 | 3.0 | 0.00 | 0.00 | 0.00 | 69 | 1011.9 |
| 20260507234002 | 55 | 322 | 1.0 | 4.0 | 0.00 | 0.00 | 0.00 | 66 | 1011.8 |
| 20260507233502 | 55 | 313 | 2.0 | 3.0 | 0.00 | 0.00 | 0.00 | 65 | 1011.9 |
| 20260507233002 | 56 | 358 | 2.0 | 3.0 | 0.00 | 0.00 | 0.00 | 63 | 1011.8 |
| 20260507232502 | 57 | 329 | 2.0 | 3.0 | 0.00 | 0.00 | 0.00 | 61 | 1011.8 |
| 20260507232002 | 60 | 318 | 3.0 | 6.0 | 0.00 | 0.00 | 0.00 | 55 | 1011.7 |
| 20260507231502 | 60 | 236 | 3.0 | 4.0 | 0.00 | 0.00 | 0.00 | 55 | 1011.6 |
| 20260507231002 | 60 | 283 | 5.0 | 6.0 | 0.00 | 0.00 | 0.00 | 57 | 1011.4 |
| 20260507230501 | 60 | 283 | 3.0 | 6.0 | 0.00 | 0.00 | 0.00 | 56 | 1011.6 |
| 20260507230002 | 60 | 280 | 10.0 | 12.0 | 0.00 | 0.00 | 0.00 | 54 | 1011.7 |
| 20260507225502 | 61 | 303 | 5.0 | 9.0 | 0.00 | 0.00 | 0.00 | 55 | 1011.6 |
| 20260507225002 | 62 | 225 | 7.0 | 9.0 | 0.00 | 0.00 | 0.00 | 54 | 1011.7 |
| 20260507224502 | 60 | 270 | 3.0 | 3.0 | 0.00 | 0.00 | 0.00 | 57 | 1011.7 |
| 20260507224002 | 59 | 285 | 2.0 | 9.0 | 0.00 | 0.00 | 0.00 | 57 | 1011.9 |
| 20260507223502 | 61 | 308 | 5.0 | 7.0 | 0.00 | 0.00 | 0.00 | 56 | 1011.8 |
| 20260507223002 | 59 | 241 | 3.0 | 10.0 | 0.00 | 0.00 | 0.00 | 57 | 1012.0 |
| 20260507222502 | 59 | 249 | 3.0 | 4.0 | 0.00 | 0.00 | 0.00 | 58 | 1011.9 |
| 20260507222002 | 59 | 264 | 2.0 | 5.0 | 0.00 | 0.00 | 0.00 | 58 | 1012.1 |
| 20260507221502 | 59 | 280 | 3.0 | 9.0 | 0.00 | 0.00 | 0.00 | 57 | 1012.3 |
| 20260507221002 | 60 | 246 | 6.0 | 12.0 | 0.00 | 0.00 | 0.00 | 57 | 1012.1 |
| 20260507220502 | 60 | 216 | 6.0 | 7.0 | 0.00 | 0.00 | 0.00 | 56 | 1012.3 |
| 20260507220002 | 58 | 244 | 2.0 | 7.0 | 0.00 | 0.00 | 0.00 | 58 | 1012.7 |
| 20260507215502 | 58 | 223 | 3.0 | 4.0 | 0.00 | 0.00 | 0.00 | 60 | 1012.6 |
| 20260507215002 | 57 | 243 | 6.0 | 9.0 | 0.00 | 0.00 | 0.00 | 61 | 1012.7 |
| 20260507214501 | 57 | 276 | 3.0 | 6.0 | 0.00 | 0.00 | 0.00 | 62 | 1012.5 |
| 20260507214002 | 57 | 202 | 4.0 | 10.0 | 0.00 | 0.00 | 0.00 | 62 | 1012.6 |
| 20260507213502 | 58 | 231 | 5.0 | 11.0 | 0.00 | 0.00 | 0.00 | 61 | 1012.5 |
| 20260507213002 | 58 | 212 | 13.0 | 19.0 | 0.00 | 0.00 | 0.00 | 59 | 1012.6 |
| 20260507212502 | 58 | 281 | 6.0 | 11.0 | 0.00 | 0.00 | 0.00 | 60 | 1012.7 |
| 20260507212002 | 57 | 200 | 7.0 | 10.0 | 0.00 | 0.00 | 0.00 | 62 | 1012.7 |
| 20260507211502 | 56 | 267 | 5.0 | 13.0 | 0.00 | 0.00 | 0.00 | 63 | 1012.8 |
| 20260507211002 | 57 | 214 | 7.0 | 13.0 | 0.00 | 0.00 | 0.00 | 61 | 1012.6 |
| 20260507210502 | 58 | 179 | 6.0 | 15.0 | 0.00 | 0.00 | 0.00 | 61 | 1012.7 |
| 20260507210002 | 58 | 266 | 4.0 | 10.0 | 0.00 | 0.00 | 0.00 | 60 | 1012.5 |
| 20260507205502 | 58 | 212 | 7.0 | 12.0 | 0.00 | 0.00 | 0.00 | 61 | 1012.8 |
| 20260507205002 | 58 | 216 | 3.0 | 9.0 | 0.00 | 0.00 | 0.00 | 62 | 1012.8 |
| 20260507204502 | 58 | 280 | 4.0 | 11.0 | 0.00 | 0.00 | 0.00 | 61 | 1012.8 |
| 20260507204002 | 58 | 241 | 6.0 | 7.0 | 0.00 | 0.00 | 0.00 | 60 | 1012.9 |
| 20260507203502 | 57 | 192 | 5.0 | 11.0 | 0.00 | 0.00 | 0.00 | 61 | 1013.0 |
| 20260507203002 | 56 | 203 | 4.0 | 10.0 | 0.00 | 0.00 | 0.00 | 64 | 1013.1 |
| 20260507202503 | 56 | 211 | 4.0 | 11.0 | 0.00 | 0.00 | 0.00 | 66 | 1013.4 |
| 20260507202002 | 56 | 232 | 5.0 | 7.0 | 0.00 | 0.00 | 0.00 | 65 | 1013.5 |
| 20260507201501 | 55 | 203 | 5.0 | 12.0 | 0.00 | 0.00 | 0.00 | 67 | 1013.6 |
| 20260507201002 | 55 | 246 | 7.0 | 11.0 | 0.00 | 0.00 | 0.00 | 66 | 1013.6 |
| 20260507200502 | 55 | 296 | 3.0 | 9.0 | 0.00 | 0.00 | 0.00 | 67 | 1013.7 |
| 20260507200002 | 55 | 265 | 6.0 | 11.0 | 0.00 | 0.00 | 0.00 | 66 | 1013.9 |
| 20260507195502 | 54 | 231 | 2.0 | 14.0 | 0.00 | 0.00 | 0.00 | 67 | 1014.2 |
| 20260507195002 | 54 | 279 | 6.0 | 16.0 | 0.00 | 0.00 | 0.00 | 66 | 1014.3 |
| 20260507194502 | 54 | 305 | 4.0 | 10.0 | 0.00 | 0.00 | 0.00 | 67 | 1014.3 |
| 20260507194002 | 53 | 228 | 9.0 | 11.0 | 0.00 | 0.00 | 0.00 | 70 | 1014.5 |
| 20260507193502 | 52 | 278 | 5.0 | 10.0 | 0.00 | 0.00 | 0.00 | 74 | 1014.5 |
| 20260507193001 | 52 | 236 | 4.0 | 7.0 | 0.00 | 0.00 | 0.00 | 69 | 1014.8 |
| 20260507192502 | 53 | 262 | 4.0 | 5.0 | 0.00 | 0.00 | 0.00 | 68 | 1014.6 |
| 20260507192002 | 53 | 263 | 8.0 | 13.0 | 0.00 | 0.00 | 0.00 | 65 | 1014.7 |
| 20260507191502 | 54 | 257 | 10.0 | 19.0 | 0.00 | 0.00 | 0.00 | 63 | 1014.9 |
| 20260507191002 | 54 | 271 | 10.0 | 22.0 | 0.00 | 0.00 | 0.00 | 63 | 1014.9 |
| 20260507190502 | 54 | 207 | 7.0 | 14.0 | 0.00 | 0.00 | 0.00 | 62 | 1014.8 |
| 20260507190003 | 54 | 246 | 5.0 | 15.0 | 0.00 | 0.00 | 0.00 | 62 | 1014.8 |
| 20260507185503 | 55 | 231 | 6.0 | 18.0 | 0.00 | 0.00 | 0.00 | 61 | 1014.8 |
| 20260507185001 | 55 | 216 | 6.0 | 11.0 | 0.00 | 0.00 | 0.00 | 61 | 1014.8 |
| 20260507184502 | 54 | 215 | 7.0 | 10.0 | 0.00 | 0.00 | 0.00 | 60 | 1014.7 |
| 20260507184002 | 55 | 218 | 10.0 | 15.0 | 0.00 | 0.00 | 0.00 | 57 | 1015.0 |
| 20260507183502 | 57 | 223 | 4.0 | 12.0 | 0.00 | 0.00 | 0.00 | 55 | 1014.5 |
| 20260507183001 | 57 | 196 | 10.0 | 18.0 | 0.00 | 0.00 | 0.00 | 53 | 1014.6 |
| 20260507182502 | 57 | 240 | 6.0 | 16.0 | 0.00 | 0.00 | 0.00 | 48 | 1014.3 |
| 20260507182002 | 58 | 225 | 9.0 | 13.0 | 0.00 | 0.00 | 0.00 | 48 | 1014.6 |
| 20260507181002 | 56 | 290 | 7.0 | 11.0 | 0.00 | 0.00 | 0.00 | 48 | 1014.6 |
| 20260507180502 | 57 | 260 | 7.0 | 14.0 | 0.00 | 0.00 | 0.00 | 49 | 1014.7 |
| 20260507180002 | 57 | 297 | 5.0 | 12.0 | 0.00 | 0.00 | 0.00 | 48 | 1014.9 |
| 20260507175501 | 56 | 255 | 4.0 | 10.0 | 0.00 | 0.00 | 0.00 | 49 | 1014.9 |
| 20260507175002 | 56 | 222 | 6.0 | 11.0 | 0.00 | 0.00 | 0.00 | 48 | 1015.1 |
| 20260507174502 | 57 | 303 | 5.0 | 21.0 | 0.00 | 0.00 | 0.00 | 47 | 1014.9 |
| 20260507174001 | 56 | 266 | 4.0 | 10.0 | 0.00 | 0.00 | 0.00 | 45 | 1015.0 |
| 20260507173502 | 57 | 270 | 2.0 | 6.0 | 0.00 | 0.00 | 0.00 | 46 | 1015.0 |
| 20260507173002 | 57 | 293 | 4.0 | 5.0 | 0.00 | 0.00 | 0.00 | 45 | 1014.9 |
| 20260507172502 | 58 | 235 | 3.0 | 9.0 | 0.00 | 0.00 | 0.00 | 45 | 1015.2 |
| 20260507172002 | 58 | 214 | 4.0 | 9.0 | 0.00 | 0.00 | 0.00 | 45 | 1015.3 |
| 20260507171502 | 59 | 279 | 4.0 | 10.0 | 0.00 | 0.00 | 0.00 | 45 | 1015.3 |
| 20260507171002 | 58 | 328 | 3.0 | 4.0 | 0.00 | 0.00 | 0.00 | 46 | 1015.4 |
| 20260507170501 | 58 | 285 | 2.0 | 9.0 | 0.00 | 0.00 | 0.00 | 44 | 1015.6 |
| 20260507170002 | 57 | 230 | 3.0 | 6.0 | 0.00 | 0.00 | 0.00 | 44 | 1015.5 |
| 20260507165502 | 58 | 254 | 4.0 | 7.0 | 0.00 | 0.00 | 0.00 | 45 | 1015.7 |
| 20260507165002 | 59 | 260 | 3.0 | 9.0 | 0.00 | 0.00 | 0.00 | 43 | 1015.8 |
| 20260507164502 | 58 | 257 | 2.0 | 5.0 | 0.00 | 0.00 | 0.00 | 50 | 1015.9 |
| 20260507164003 | 58 | 257 | 4.0 | 7.0 | 0.00 | 0.00 | 0.00 | 48 | 1015.8 |
| 20260507163502 | 57 | 290 | 3.0 | 10.0 | 0.00 | 0.00 | 0.00 | 47 | 1016.0 |
| 20260507163003 | 57 | 296 | 7.0 | 9.0 | 0.00 | 0.00 | 0.00 | 45 | 1016.0 |
| 20260507162502 | 57 | 254 | 4.0 | 7.0 | 0.00 | 0.00 | 0.00 | 47 | 1016.2 |
| 20260507162002 | 57 | 268 | 3.0 | 5.0 | 0.00 | 0.00 | 0.00 | 45 | 1016.2 |
| 20260507161502 | 56 | 221 | 5.0 | 11.0 | 0.00 | 0.00 | 0.00 | 50 | 1016.4 |
| 20260507161001 | 56 | 283 | 4.0 | 5.0 | 0.00 | 0.00 | 0.00 | 47 | 1016.2 |
| 20260507160502 | 56 | 196 | 3.0 | 7.0 | 0.00 | 0.00 | 0.00 | 49 | 1016.2 |
| 20260507160002 | 56 | 247 | 4.0 | 10.0 | 0.00 | 0.00 | 0.00 | 49 | 1016.5 |
| 20260507155502 | 55 | 208 | 4.0 | 7.0 | 0.00 | 0.00 | 0.00 | 49 | 1016.6 |
| 20260507155003 | 56 | 252 | 4.0 | 6.0 | 0.00 | 0.00 | 0.00 | 49 | 1016.6 |
| 20260507154502 | 56 | 275 | 4.0 | 6.0 | 0.00 | 0.00 | 0.00 | 48 | 1016.6 |
| 20260507154002 | 55 | 254 | 4.0 | 5.0 | 0.00 | 0.00 | 0.00 | 48 | 1016.6 |
| 20260507153502 | 55 | 286 | 1.0 | 4.0 | 0.00 | 0.00 | 0.00 | 52 | 1016.8 |
| 20260507153002 | 54 | 188 | 3.0 | 6.0 | 0.00 | 0.00 | 0.00 | 54 | 1016.5 |
| 20260507152502 | 55 | 275 | 3.0 | 6.0 | 0.00 | 0.00 | 0.00 | 47 | 1016.7 |
| 20260507152002 | 55 | 267 | 4.0 | 6.0 | 0.00 | 0.00 | 0.00 | 47 | 1016.9 |
| 20260507151502 | 54 | 227 | 3.0 | 5.0 | 0.00 | 0.00 | 0.00 | 51 | 1016.8 |
| 20260507151002 | 54 | 197 | 4.0 | 5.0 | 0.00 | 0.00 | 0.00 | 50 | 1016.8 |
| 20260507150501 | 53 | 284 | 1.0 | 4.0 | 0.00 | 0.00 | 0.00 | 48 | 1017.0 |
| 20260507150002 | 54 | 247 | 4.0 | 7.0 | 0.00 | 0.00 | 0.00 | 48 | 1017.2 |
| 20260507145502 | 53 | 276 | 3.0 | 4.0 | 0.00 | 0.00 | 0.00 | 50 | 1017.2 |
| 20260507145002 | 52 | 253 | 3.0 | 6.0 | 0.00 | 0.00 | 0.00 | 49 | 1016.9 |
| 20260507144502 | 52 | 291 | 3.0 | 5.0 | 0.00 | 0.00 | 0.00 | 53 | 1017.3 |
| 20260507144002 | 52 | 258 | 4.0 | 7.0 | 0.00 | 0.00 | 0.00 | 51 | 1017.2 |
| 20260507143502 | 52 | 282 | 2.0 | 5.0 | 0.00 | 0.00 | 0.00 | 55 | 1017.2 |
| 20260507143002 | 52 | 258 | 4.0 | 4.0 | 0.00 | 0.00 | 0.00 | 53 | 1017.3 |
| 20260507142502 | 52 | 240 | 2.0 | 5.0 | 0.00 | 0.00 | 0.00 | 53 | 1017.1 |
| 20260507142001 | 52 | 233 | 4.0 | 5.0 | 0.00 | 0.00 | 0.00 | 53 | 1017.2 |
| 20260507141502 | 51 | 258 | 2.0 | 4.0 | 0.00 | 0.00 | 0.00 | 53 | 1017.1 |
| 20260507141002 | 50 | 271 | 2.0 | 4.0 | 0.00 | 0.00 | 0.00 | 56 | 1017.4 |
| 20260507140502 | 50 | 204 | 3.0 | 5.0 | 0.00 | 0.00 | 0.00 | 57 | 1017.3 |
| 20260507135502 | 50 | 314 | 4.0 | 5.0 | 0.00 | 0.00 | 0.00 | 57 | 1017.5 |
| 20260507135002 | 50 | 297 | 2.0 | 7.0 | 0.00 | 0.00 | 0.00 | 58 | 1017.8 |
| 20260507134502 | 49 | 284 | 3.0 | 5.0 | 0.00 | 0.00 | 0.00 | 57 | 1017.6 |
| 20260507134001 | 49 | 287 | 3.0 | 5.0 | 0.00 | 0.00 | 0.00 | 59 | 1017.7 |
| 20260507133502 | 49 | 261 | 5.0 | 5.0 | 0.00 | 0.00 | 0.00 | 58 | 1017.6 |
| 20260507133002 | 48 | 291 | 2.0 | 3.0 | 0.00 | 0.00 | 0.00 | 61 | 1017.6 |
| 20260507132502 | 48 | 282 | 4.0 | 5.0 | 0.00 | 0.00 | 0.00 | 59 | 1017.6 |
| 20260507132002 | 47 | 280 | 2.0 | 2.0 | 0.00 | 0.00 | 0.00 | 62 | 1017.6 |
| 20260507131502 | 47 | 279 | 1.0 | 3.0 | 0.00 | 0.00 | 0.00 | 62 | 1017.7 |
| 20260507131002 | 47 | 272 | 2.0 | 4.0 | 0.00 | 0.00 | 0.00 | 59 | 1017.6 |
| 20260507130502 | 46 | 272 | 2.0 | 4.0 | 0.00 | 0.00 | 0.00 | 62 | 1017.6 |
| 20260507130001 | 46 | 269 | 2.0 | 4.0 | 0.00 | 0.00 | 0.00 | 63 | 1017.2 |
| 20260507125502 | 45 | 223 | 2.0 | 3.0 | 0.00 | 0.00 | 0.00 | 64 | 1017.3 |
| 20260507125002 | 45 | 285 | 1.0 | 3.0 | 0.00 | 0.00 | 0.00 | 66 | 1017.3 |
| 20260507124501 | 45 | 275 | 2.0 | 3.0 | 0.00 | 0.00 | 0.00 | 69 | 1017.3 |
| 20260507124002 | 44 | 289 | 1.0 | 3.0 | 0.00 | 0.00 | 0.00 | 69 | 1017.3 |
| 20260507123502 | 43 | 272 | 2.0 | 3.0 | 0.00 | 0.00 | 0.00 | 71 | 1017.4 |
| 20260507123002 | 42 | 279 | 2.0 | 3.0 | 0.00 | 0.00 | 0.00 | 71 | 1017.3 |
| 20260507122502 | 42 | 282 | 2.0 | 3.0 | 0.00 | 0.00 | 0.00 | 73 | 1017.5 |
| 20260507122002 | 42 | 249 | 2.0 | 3.0 | 0.00 | 0.00 | 0.00 | 75 | 1017.2 |
| 20260507121502 | 41 | 258 | 2.0 | 2.0 | 0.00 | 0.00 | 0.00 | 77 | 1017.3 |
| 20260507121002 | 40 | 266 | 2.0 | 3.0 | 0.00 | 0.00 | 0.00 | 81 | 1017.2 |
| 20260507120501 | 39 | 281 | 1.0 | 2.0 | 0.00 | 0.00 | 0.00 | 86 | 1017.5 |
| 20260507120002 | 38 | 285 | 0.0 | 0.0 | 0.00 | 0.00 | 0.00 | 89 | 1017.2 |
| 20260507115502 | 37 | 285 | 0.0 | 2.0 | 0.00 | 0.00 | 0.00 | 90 | 1017.4 |
| 20260507115002 | 36 | 285 | 0.0 | 0.0 | 0.00 | 0.00 | 0.00 | 92 | 1017.3 |
| 20260507114502 | 34 | 290 | 0.0 | 0.0 | 0.00 | 0.00 | 0.00 | 96 | 1017.1 |
| 20260507114002 | 34 | 292 | 0.0 | 0.0 | 0.00 | 0.00 | 0.00 | 98 | 1017.1 |
| 20260507113502 | 33 | 292 | 0.0 | 0.0 | 0.00 | 0.00 | 0.00 | 98 | 1017.1 |
| 20260507113002 | 33 | 292 | 0.0 | 0.0 | 0.00 | 0.00 | 0.00 | 99 | 1016.8 |
| 20260507112502 | 32 | 299 | 0.0 | 0.0 | 0.00 | 0.00 | 0.00 | 99 | 1017.0 |
| 20260507112002 | 32 | 287 | 0.0 | 0.0 | 0.00 | 0.00 | 0.00 | 99 | 1017.1 |
| 20260507111503 | 31 | 286 | 0.0 | 0.0 | 0.00 | 0.00 | 0.00 | 98 | 1016.7 |
| 20260507111002 | 32 | 286 | 0.0 | 0.0 | 0.00 | 0.00 | 0.00 | 98 | 1017.1 |
| 20260507110502 | 32 | 286 | 0.0 | 0.0 | 0.00 | 0.00 | 0.00 | 98 | 1017.0 |
| 20260507110002 | 31 | 286 | 0.0 | 0.0 | 0.00 | 0.00 | 0.00 | 98 | 1016.9 |
| 20260507105502 | 31 | 286 | 0.0 | 0.0 | 0.00 | 0.00 | 0.00 | 98 | 1016.9 |
| 20260507105002 | 31 | 286 | 0.0 | 0.0 | 0.00 | 0.00 | 0.00 | 97 | 1017.2 |
| 20260507104501 | 31 | 286 | 0.0 | 0.0 | 0.00 | 0.00 | 0.00 | 97 | 1017.1 |
| 20260507104002 | 31 | 286 | 0.0 | 0.0 | 0.00 | 0.00 | 0.00 | 97 | 1017.1 |
| 20260507103502 | 32 | 286 | 0.0 | 0.0 | 0.00 | 0.00 | 0.00 | 97 | 1017.3 |
| 20260507103002 | 32 | 286 | 0.0 | 0.0 | 0.00 | 0.00 | 0.00 | 97 | 1017.3 |
| 20260507102502 | 33 | 286 | 0.0 | 0.0 | 0.00 | 0.00 | 0.00 | 97 | 1017.2 |
| 20260507102001 | 33 | 286 | 0.0 | 0.0 | 0.00 | 0.00 | 0.00 | 97 | 1017.1 |
| 20260507101502 | 32 | 286 | 0.0 | 0.0 | 0.00 | 0.00 | 0.00 | 98 | 1017.2 |
| 20260507101002 | 32 | 286 | 0.0 | 0.0 | 0.00 | 0.00 | 0.00 | 97 | 1017.2 |
| 20260507100501 | 32 | 286 | 0.0 | 0.0 | 0.00 | 0.00 | 0.00 | 97 | 1017.4 |
| 20260507100002 | 32 | 286 | 0.0 | 0.0 | 0.00 | 0.00 | 0.00 | 97 | 1017.1 |
| 20260507095502 | 33 | 286 | 0.0 | 0.0 | 0.00 | 0.00 | 0.00 | 97 | 1017.3 |